Weather History for KEED - September, 2013

Change the Weather History Date:

Monday, September 23, 2013

  Actual Average Record
Temperature  
Mean Temperature 80 °F -  
Max Temperature 95 °F 96 °F 109 °F (1966)
Min Temperature 66 °F 70 °F 57 °F (1985)
Cooling Degree Days 16    
Growing Degree Days 30 (Base 50)    
Moisture  
Dew Point 33 °F    
Average Humidity 19    
Maximum Humidity 30    
Minimum Humidity 10    
Precipitation  
Precipitation 0.00 in - - ()
Sea Level Pressure  
Sea Level Pressure 29.77 in    
Wind  
Wind Speed 5 mph (WNW)    
Max Wind Speed 14 mph    
Max Gust Speed 20 mph    
Visibility 10 miles    
Events      
Averages and records for this station are not official NWS values.
T = Trace of Precipitation, MM = Missing Value Source: NWS Daily Summary

Daily Weather History Graph

Daily Weather History Graph

Search for Another Location

Airport or City:

Trip Planner

Search our weather history database for the weather conditions in past years. The results will help you decide how hot, cold, wet, or windy it might be!

Date:

Astronomy

Sep. 23, 2013 Rise Set
Actual Time 6:27 AM PDT 6:33 PM PDT
Civil Twilight 6:02 AM PDT 6:58 PM PDT
Nautical Twilight 5:32 AM PDT 7:27 PM PDT
Astronomical Twilight 5:03 AM PDT 7:57 PM PDT
Moon 9:20 PM PDT (9/23) 10:39 AM PDT (9/23)
Length of Visible Light 12h 56m
Length of Day
12h 05m
Waning Gibbous, 80% of the Moon is Illuminated
Sep 23
Waning Gibbous
Sep 26
Last Quarter
Oct 4
New
Oct 11
First Quarter
Oct 18
Full

Hourly Weather History & Observations

Time (PDT) Temp. Dew Point Humidity Pressure Visibility Wind Dir Wind Speed Gust Speed Precip Events Conditions
12:56 AM 73.0 °F 32.0 °F 22% 29.72 in 10.0 mi SW 4.6 mph - N/A   Clear
1:56 AM 72.0 °F 32.0 °F 23% 29.73 in 10.0 mi Calm Calm - N/A   Clear
2:56 AM 69.1 °F 33.1 °F 26% 29.73 in 10.0 mi WSW 3.5 mph - N/A   Clear
3:56 AM 69.1 °F 33.1 °F 26% 29.74 in 10.0 mi Calm Calm - N/A   Clear
4:56 AM 66.9 °F 34.0 °F 30% 29.75 in 10.0 mi Calm Calm - N/A   Clear
5:56 AM 66.0 °F 34.0 °F 30% 29.77 in 10.0 mi SSW 4.6 mph - N/A   Clear
6:56 AM 66.0 °F 34.0 °F 30% 29.80 in 10.0 mi WSW 3.5 mph - N/A   Clear
7:56 AM 72.0 °F 37.0 °F 28% 29.81 in 10.0 mi South 3.5 mph - N/A   Clear
8:56 AM 75.9 °F 39.0 °F 26% 29.82 in 10.0 mi Calm Calm - N/A   Clear
10:56 AM 87.1 °F 37.0 °F 17% 29.82 in 10.0 mi NNE 10.4 mph - N/A   Clear
11:56 AM 90.0 °F 37.9 °F 16% 29.81 in 10.0 mi North 11.5 mph - N/A   Clear
12:56 PM 93.0 °F 35.1 °F 13% 29.79 in 10.0 mi North 13.8 mph 19.6 mph N/A   Clear
1:56 PM 93.9 °F 34.0 °F 12% 29.77 in 10.0 mi Variable 6.9 mph - N/A   Clear
2:56 PM 93.9 °F 34.0 °F 12% 29.77 in 10.0 mi North 5.8 mph 18.4 mph N/A   Clear
3:56 PM 93.9 °F 33.1 °F 12% 29.75 in 10.0 mi NE 12.7 mph - N/A   Clear
4:56 PM 95.0 °F 30.9 °F 10% 29.74 in 10.0 mi NNE 5.8 mph - N/A   Clear
5:56 PM 93.0 °F 30.9 °F 11% 29.74 in 10.0 mi NNE 4.6 mph - N/A   Clear
6:56 PM 87.1 °F 33.1 °F 15% 29.76 in 10.0 mi Calm Calm - N/A   Clear
7:56 PM 82.0 °F 32.0 °F 16% 29.78 in 10.0 mi WNW 4.6 mph - N/A   Clear
8:56 PM 79.0 °F 30.0 °F 17% 29.79 in 10.0 mi West 6.9 mph - N/A   Clear
9:56 PM 78.1 °F 30.0 °F 17% 29.80 in 10.0 mi WSW 9.2 mph - N/A   Clear
10:56 PM 77.0 °F 30.0 °F 18% 29.79 in 10.0 mi West 9.2 mph - N/A   Clear
11:56 PM 75.0 °F 30.9 °F 20% 29.80 in 10.0 mi SSW 5.8 mph - N/A   Clear